Total_Precipitation_Accumulation
0.09 0.17 0.39 0.49 0.55 0.54 0.48 0.43 0.40 0.37 0.37 0.40 0.42 0.42 0.38 0.37 0.35 0.34 0.35 0.38 0.45 0.51 0.57 0.61 0.59 0.54 0.46 0.37 0.25 0.16 0.14 0.16 0.12 0.09 0.08 0.11 0.15 0.16 0.13 0.12 0.13 0.19 0.25
0.10 0.17 0.35 0.48 0.59 0.62 0.56 0.48 0.42 0.37 0.37 0.44 0.48 0.45 0.42 0.40 0.40 0.38 0.44 0.46 0.52 0.53 0.55 0.60 0.60 0.49 0.39 0.28 0.19 0.14 0.14 0.08 0.04 0.03 0.02 0.04 0.08 0.11 0.10 0.10 0.13 0.20 0.26
0.13 0.20 0.35 0.49 0.61 0.63 0.56 0.50 0.41 0.37 0.38 0.45 0.51 0.50 0.47 0.45 0.45 0.43 0.46 0.50 0.57 0.56 0.48 0.46 0.45 0.34 0.26 0.17 0.13 0.12 0.11 0.06 0.04 0.03 0.03 0.06 0.09 0.13 0.15 0.13 0.18 0.26 0.26
0.19 0.24 0.36 0.53 0.69 0.70 0.62 0.54 0.47 0.46 0.46 0.50 0.57 0.57 0.56 0.53 0.51 0.52 0.49 0.49 0.55 0.51 0.43 0.37 0.31 0.21 0.17 0.14 0.11 0.10 0.08 0.05 0.03 0.03 0.05 0.08 0.11 0.19 0.20 0.19 0.22 0.27 0.24
0.26 0.32 0.44 0.59 0.77 0.78 0.68 0.59 0.53 0.54 0.57 0.60 0.64 0.67 0.68 0.62 0.60 0.60 0.55 0.49 0.51 0.44 0.35 0.29 0.23 0.15 0.11 0.10 0.10 0.09 0.09 0.06 0.03 0.03 0.06 0.11 0.15 0.23 0.22 0.22 0.24 0.28 0.24
0.35 0.43 0.54 0.67 0.85 0.92 0.78 0.67 0.60 0.60 0.65 0.70 0.75 0.78 0.76 0.75 0.74 0.69 0.57 0.49 0.44 0.38 0.30 0.24 0.21 0.14 0.10 0.09 0.08 0.08 0.10 0.08 0.04 0.04 0.05 0.08 0.14 0.26 0.27 0.25 0.27 0.30 0.30
0.39 0.56 0.72 0.84 0.96 1.10 0.99 0.86 0.77 0.74 0.76 0.79 0.82 0.80 0.80 0.84 0.86 0.79 0.58 0.45 0.40 0.37 0.30 0.23 0.20 0.15 0.11 0.10 0.09 0.08 0.09 0.08 0.07 0.07 0.06 0.07 0.15 0.30 0.34 0.31 0.33 0.35 0.31
0.51 0.65 0.89 1.15 1.19 1.30 1.27 1.06 0.93 0.86 0.87 0.90 0.88 0.87 0.88 0.89 0.91 0.88 0.64 0.48 0.40 0.38 0.34 0.27 0.21 0.18 0.14 0.13 0.11 0.10 0.10 0.07 0.06 0.07 0.07 0.07 0.13 0.23 0.25 0.23 0.25 0.30 0.29
0.78 0.79 0.93 1.17 1.33 1.42 1.45 1.20 1.09 0.97 0.90 0.93 0.97 0.97 0.88 0.83 0.85 0.81 0.65 0.51 0.45 0.45 0.42 0.36 0.29 0.24 0.18 0.16 0.13 0.10 0.08 0.06 0.05 0.07 0.06 0.07 0.10 0.18 0.20 0.20 0.24 0.28 0.31
1.16 1.11 1.07 1.17 1.30 1.46 1.53 1.24 1.10 1.00 0.94 0.94 0.94 0.85 0.72 0.68 0.72 0.72 0.59 0.50 0.46 0.48 0.46 0.39 0.33 0.28 0.24 0.20 0.15 0.11 0.08 0.06 0.06 0.06 0.07 0.08 0.11 0.19 0.22 0.25 0.26 0.29 0.33
1.48 1.48 1.40 1.33 1.29 1.35 1.48 1.31 1.18 1.08 0.97 0.92 0.91 0.81 0.71 0.67 0.68 0.61 0.48 0.43 0.44 0.48 0.51 0.44 0.37 0.32 0.24 0.18 0.16 0.13 0.11 0.09 0.09 0.10 0.10 0.09 0.12 0.20 0.28 0.33 0.34 0.34 0.36
1.57 1.55 1.57 1.54 1.44 1.43 1.45 1.40 1.31 1.15 1.05 0.93 0.84 0.79 0.77 0.71 0.67 0.59 0.50 0.44 0.48 0.49 0.56 0.54 0.43 0.35 0.23 0.18 0.17 0.15 0.14 0.11 0.12 0.12 0.11 0.12 0.18 0.29 0.36 0.38 0.33 0.34 0.37
1.85 1.70 1.65 1.68 1.70 1.60 1.54 1.44 1.33 1.12 1.04 1.03 0.94 0.83 0.79 0.85 0.80 0.75 0.63 0.53 0.53 0.50 0.53 0.53 0.46 0.34 0.24 0.20 0.19 0.15 0.15 0.16 0.14 0.14 0.13 0.14 0.21 0.34 0.39 0.37 0.32 0.31 0.34
2.23 2.05 1.96 1.99 1.95 1.80 1.69 1.56 1.42 1.18 1.02 1.00 0.99 0.96 0.91 0.87 0.77 0.73 0.66 0.52 0.49 0.49 0.50 0.49 0.42 0.36 0.32 0.27 0.24 0.22 0.19 0.18 0.17 0.18 0.18 0.17 0.19 0.29 0.39 0.42 0.39 0.38 0.39
2.39 2.39 2.28 2.26 2.23 2.05 1.93 1.77 1.49 1.31 1.10 0.98 0.97 1.00 0.94 0.85 0.78 0.73 0.67 0.60 0.51 0.49 0.48 0.50 0.47 0.43 0.41 0.38 0.33 0.28 0.25 0.23 0.22 0.23 0.24 0.24 0.22 0.25 0.36 0.47 0.52 0.53 0.57
2.39 2.55 2.60 2.56 2.47 2.29 2.07 1.88 1.61 1.46 1.27 1.16 1.09 1.02 0.95 0.91 0.88 0.84 0.74 0.65 0.57 0.52 0.51 0.55 0.56 0.53 0.48 0.44 0.37 0.33 0.31 0.28 0.24 0.22 0.23 0.25 0.23 0.25 0.32 0.46 0.58 0.69 0.76
2.34 2.57 2.74 2.83 2.93 2.66 2.39 2.12 1.84 1.64 1.49 1.36 1.22 1.09 0.97 0.91 0.96 0.96 0.89 0.73 0.63 0.64 0.61 0.62 0.65 0.67 0.63 0.54 0.46 0.41 0.38 0.35 0.30 0.26 0.26 0.25 0.22 0.21 0.26 0.41 0.56 0.65 0.74
2.33 2.45 2.61 2.64 2.88 2.98 2.80 2.50 2.10 1.85 1.65 1.53 1.41 1.26 1.14 1.00 1.01 1.04 1.00 0.94 0.83 0.79 0.76 0.73 0.69 0.65 0.61 0.54 0.49 0.46 0.43 0.42 0.38 0.36 0.35 0.30 0.25 0.20 0.22 0.31 0.41 0.50 0.60
2.36 2.42 2.59 2.59 2.67 2.87 3.01 2.83 2.52 2.23 1.96 1.78 1.67 1.49 1.38 1.28 1.20 1.19 1.11 1.09 1.10 1.02 0.92 0.86 0.80 0.72 0.67 0.63 0.58 0.57 0.55 0.50 0.45 0.42 0.38 0.32 0.30 0.28 0.26 0.25 0.29 0.35 0.44
2.36 2.54 2.66 2.79 2.81 2.97 3.26 3.25 2.93 2.66 2.41 2.22 2.01 1.88 1.74 1.59 1.47 1.38 1.31 1.27 1.29 1.22 1.09 1.01 0.91 0.83 0.76 0.75 0.74 0.67 0.61 0.55 0.51 0.46 0.42 0.38 0.36 0.36 0.38 0.38 0.37 0.37 0.41
2.05 2.32 2.39 2.63 2.81 2.98 3.06 3.00 2.82 2.61 2.45 2.35 2.29 2.23 2.06 1.88 1.76 1.59 1.46 1.43 1.43 1.36 1.24 1.17 1.13 1.01 0.93 0.94 0.91 0.76 0.64 0.57 0.51 0.46 0.47 0.47 0.43 0.39 0.41 0.46 0.50 0.48 0.41
1.66 1.85 2.00 2.18 2.42 2.63 2.75 2.73 2.75 2.78 2.61 2.39 2.30 2.25 2.21 2.13 1.99 1.81 1.63 1.56 1.53 1.50 1.37 1.29 1.31 1.27 1.15 1.13 1.11 1.06 0.89 0.73 0.57 0.50 0.49 0.47 0.47 0.49 0.45 0.44 0.44 0.46 0.49
1.34 1.53 1.67 1.83 1.99 2.11 2.48 2.73 2.74 2.81 2.73 2.43 2.18 2.02 2.10 2.19 2.20 2.05 1.87 1.81 1.73 1.70 1.62 1.52 1.47 1.43 1.39 1.33 1.33 1.43 1.23 0.93 0.69 0.58 0.57 0.54 0.51 0.55 0.56 0.53 0.49 0.47 0.47
1.06 1.26 1.46 1.64 1.79 1.83 2.09 2.37 2.41 2.29 2.24 2.14 2.07 2.09 2.13 2.16 2.21 2.21 2.10 1.97 1.89 1.83 1.77 1.83 1.86 1.75 1.65 1.49 1.39 1.31 1.28 1.12 1.05 0.84 0.66 0.64 0.61 0.57 0.61 0.61 0.57 0.53 0.49
0.88 0.97 1.18 1.46 1.61 1.67 1.74 1.94 2.15 2.20 2.16 2.18 2.17 2.15 2.09 2.01 2.04 2.13 2.14 2.03 1.85 1.73 1.67 1.73 1.82 1.87 1.76 1.62 1.50 1.41 1.34 1.19 1.10 1.09 0.89 0.72 0.69 0.63 0.61 0.65 0.67 0.69 0.68
0.75 0.76 0.90 1.11 1.40 1.56 1.63 1.72 1.84 1.93 1.91 1.94 2.03 2.07 2.09 1.99 1.88 1.89 1.94 1.91 1.87 1.76 1.64 1.66 1.78 1.86 1.86 1.80 1.65 1.49 1.41 1.32 1.14 1.14 1.09 0.91 0.86 0.78 0.74 0.75 0.78 0.81 0.82